STARLINK-1805 (46705 NORAD) Tracking and Keplerian Element Data

This shows tracking and keplerian element data for the satellite.

Feedback or suggestion? Click here.




ElementValue
Catalog46705
NameSTARLINK-1805
Epoch Orbit1458
Epoch Day18.25002315
Epoch Year2021
RAAN40.2843
Inclination53.0552
Eccentricity0.0001086
Argument of Perigee69.5872
Mean Anonmoly333.4957
Mean Motion15.06411402
Decay Rate-0.00032664
L11 46705U 20073AM 21018.25002315 -.00032664 00000-0 -21834-2 0 9997
L22 46705 53.0552 40.2843 0001086 69.5872 333.4957 15.06411402 14583

Live tracking and technical data element details for STARLINK-1805 (NORAD 46705). STARLINK-1805 can be tracked NOW for your location showing map with azimuth and elevation plus other details from your city location.

Track the satellite on the map from your city or location and see movement details for azimuth, elevation, latitude, longitude, range, height, and movement on the map or in text.







IsCatalogInMostPopularTable: catalog: 46705, numindb: 31
Update: records affected: 1



GetName: 46705 STARLINK-1805

Hit Count: updated at: Tue, 19 Jan 2021 02:22:50 GMT